TimeCDT,TemperatureF,Dew PointF,Humidity,Sea Level PressureIn,VisibilityMPH,Wind Direction,Wind SpeedMPH,Gust SpeedMPH,PrecipitationIn,Events,Conditions,WindDirDegrees,DateUTC
12:15 AM,66.4,29.3,25,29.68,10.0,NNW,16.1,21.9,N/A,,Clear,340,2013-05-31 05:15:00
12:35 AM,66.4,39.7,38,29.69,10.0,North,18.4,-,N/A,,Clear,350,2013-05-31 05:35:00
12:55 AM,65.7,51.3,60,29.69,10.0,North,18.4,21.9,N/A,,Clear,360,2013-05-31 05:55:00
1:15 AM,64.9,54.7,69,29.70,10.0,North,15.0,-,N/A,,Clear,10,2013-05-31 06:15:00
1:35 AM,64.6,56.3,74,29.71,10.0,North,15.0,-,N/A,,Clear,350,2013-05-31 06:35:00
1:55 AM,63.9,56.7,77,29.72,10.0,North,13.8,18.4,N/A,,Clear,350,2013-05-31 06:55:00
2:15 AM,62.8,56.3,79,29.72,10.0,North,13.8,-,N/A,,Clear,350,2013-05-31 07:15:00
2:35 AM,61.5,56.3,83,29.73,10.0,North,9.2,-,N/A,,Clear,350,2013-05-31 07:35:00
2:55 AM,60.3,56.3,87,29.73,10.0,NNW,9.2,-,N/A,,Clear,340,2013-05-31 07:55:00
3:15 AM,59.4,56.1,89,29.72,10.0,NNW,8.1,-,N/A,,Clear,340,2013-05-31 08:15:00
3:35 AM,57.7,55.2,91,29.72,10.0,North,6.9,-,N/A,,Clear,350,2013-05-31 08:35:00
3:55 AM,56.1,53.8,92,29.73,10.0,Calm,Calm,-,N/A,,Clear,0,2013-05-31 08:55:00
4:15 AM,54.1,52.5,94,29.74,10.0,WNW,8.1,-,N/A,,Clear,290,2013-05-31 09:15:00
4:35 AM,54.7,53.1,94,29.74,10.0,WNW,6.9,-,N/A,,Clear,300,2013-05-31 09:35:00
4:55 AM,52.5,50.9,94,29.76,7.0,SW,6.9,-,N/A,,Clear,230,2013-05-31 09:55:00
5:15 AM,52.9,51.8,96,29.76,7.0,West,8.1,-,N/A,,Clear,260,2013-05-31 10:15:00
5:35 AM,54.0,53.1,97,29.76,7.0,WNW,8.1,-,N/A,,Clear,290,2013-05-31 10:35:00
5:55 AM,53.1,51.6,95,29.76,7.0,NW,9.2,-,N/A,,Clear,310,2013-05-31 10:55:00
6:15 AM,54.0,52.7,95,29.77,7.0,NW,10.4,-,N/A,,Clear,310,2013-05-31 11:15:00
6:35 AM,53.8,52.7,96,29.78,5.0,NW,9.2,-,N/A,,Clear,310,2013-05-31 11:35:00
6:55 AM,54.1,52.9,95,29.79,5.0,NW,9.2,-,N/A,,Clear,310,2013-05-31 11:55:00
7:15 AM,55.8,54.5,96,29.80,5.0,NW,12.7,-,N/A,,Clear,320,2013-05-31 12:15:00
7:35 AM,57.7,55.8,93,29.80,7.0,NNW,15.0,-,N/A,,Clear,330,2013-05-31 12:35:00
7:55 AM,59.5,55.8,87,29.80,10.0,NNW,12.7,-,N/A,,Clear,330,2013-05-31 12:55:00
8:15 AM,61.2,55.8,82,29.81,10.0,NNW,10.4,-,N/A,,Clear,340,2013-05-31 13:15:00
8:35 AM,64.0,56.5,76,29.82,10.0,NNW,13.8,-,N/A,,Clear,330,2013-05-31 13:35:00
8:55 AM,64.4,56.1,74,29.82,10.0,NNW,11.5,-,N/A,,Clear,330,2013-05-31 13:55:00
9:15 AM,65.7,56.1,71,29.82,10.0,NNW,6.9,-,N/A,,Clear,330,2013-05-31 14:15:00
9:55 AM,69.4,55.2,60,29.83,10.0,NW,4.6,-,N/A,,Clear,320,2013-05-31 14:55:00
10:15 AM,71.2,54.0,54,29.83,10.0,NNW,8.1,-,N/A,,Clear,330,2013-05-31 15:15:00
10:35 AM,73.8,51.8,46,29.83,10.0,NW,6.9,-,N/A,,Clear,320,2013-05-31 15:35:00
10:55 AM,75.2,49.5,40,29.83,10.0,NNW,9.2,-,N/A,,Clear,340,2013-05-31 15:55:00
11:15 AM,76.1,47.8,37,29.82,10.0,North,6.9,-,N/A,,Clear,360,2013-05-31 16:15:00
12:35 PM,82.8,33.8,17,29.82,10.0,NE,6.9,-,N/A,,Clear,50,2013-05-31 17:35:00
12:55 PM,84.0,32.2,15,29.82,10.0,Calm,Calm,-,N/A,,Clear,0,2013-05-31 17:55:00
1:15 PM,84.7,32.9,16,29.81,10.0,East,9.2,-,N/A,,Clear,100,2013-05-31 18:15:00
1:35 PM,85.5,32.0,15,29.80,10.0,SE,8.1,-,N/A,,Clear,140,2013-05-31 18:35:00
1:55 PM,86.7,34.0,15,29.80,10.0,SE,4.6,-,N/A,,Clear,140,2013-05-31 18:55:00
2:15 PM,87.1,35.8,16,29.79,10.0,SE,8.1,-,N/A,,Clear,140,2013-05-31 19:15:00
2:35 PM,87.4,36.5,16,29.78,10.0,SE,8.1,-,N/A,,Clear,130,2013-05-31 19:35:00
2:55 PM,88.2,36.5,16,29.78,10.0,SW,4.6,-,N/A,,Clear,230,2013-05-31 19:55:00
3:15 PM,89.2,36.3,15,29.76,10.0,NE,5.8,-,N/A,,Clear,50,2013-05-31 20:15:00
3:35 PM,90.5,33.6,13,29.76,10.0,ENE,6.9,-,N/A,,Clear,70,2013-05-31 20:35:00
4:15 PM,91.0,33.8,13,29.74,10.0,East,8.1,-,N/A,,Clear,90,2013-05-31 21:15:00
4:35 PM,91.0,32.0,12,29.73,10.0,Calm,Calm,-,N/A,,Clear,0,2013-05-31 21:35:00
4:55 PM,92.3,33.6,13,29.73,10.0,South,10.4,18.4,N/A,,Clear,170,2013-05-31 21:55:00
5:15 PM,91.9,33.6,13,29.71,10.0,East,8.1,-,N/A,,Clear,100,2013-05-31 22:15:00
5:35 PM,91.0,34.7,14,29.70,10.0,SSE,17.3,21.9,N/A,,Clear,150,2013-05-31 22:35:00
5:55 PM,90.0,34.7,14,29.69,10.0,SSE,6.9,11.5,N/A,,Clear,150,2013-05-31 22:55:00
6:15 PM,90.3,36.5,15,29.68,10.0,SSE,17.3,20.7,N/A,,Clear,150,2013-05-31 23:15:00
6:35 PM,89.2,38.8,17,29.67,10.0,ESE,15.0,19.6,N/A,,Clear,120,2013-05-31 23:35:00
6:55 PM,87.3,40.6,19,29.67,10.0,ESE,15.0,-,N/A,,Clear,120,2013-05-31 23:55:00
7:15 PM,87.4,42.3,21,29.66,10.0,ESE,15.0,-,N/A,,Clear,120,2013-06-01 00:15:00
7:35 PM,85.1,44.6,24,29.66,10.0,ESE,12.7,-,N/A,,Clear,110,2013-06-01 00:35:00
7:55 PM,84.6,44.6,25,29.67,10.0,East,11.5,-,N/A,,Clear,100,2013-06-01 00:55:00
8:15 PM,82.8,46.2,28,29.68,10.0,East,12.7,-,N/A,,Clear,80,2013-06-01 01:15:00
8:35 PM,81.0,48.4,32,29.69,10.0,ENE,25.3,32.2,0.01,,Clear,60,2013-06-01 01:35:00
8:55 PM,78.3,46.6,33,29.71,10.0,NE,32.2,40.3,0.01,,Clear,50,2013-06-01 01:55:00
9:15 PM,74.3,43.0,33,29.71,10.0,NE,32.2,43.7,N/A,,Clear,40,2013-06-01 02:15:00
9:35 PM,73.2,43.3,34,29.74,10.0,NE,28.8,35.7,N/A,,Clear,40,2013-06-01 02:35:00
9:55 PM,72.3,44.4,37,29.74,10.0,NE,27.6,40.3,N/A,,Clear,40,2013-06-01 02:55:00
10:15 PM,71.6,44.4,38,29.76,10.0,NE,25.3,28.8,N/A,,Clear,40,2013-06-01 03:15:00
10:35 PM,71.6,44.1,37,29.78,10.0,NE,19.6,-,N/A,,Clear,50,2013-06-01 03:35:00
10:55 PM,71.8,43.7,36,29.85,10.0,NNE,9.2,-,N/A,,Clear,30,2013-06-01 03:55:00
11:15 PM,70.7,44.2,39,29.83,10.0,East,12.7,-,N/A,,Clear,80,2013-06-01 04:15:00
11:35 PM,68.9,45.0,42,29.86,10.0,NE,10.4,-,N/A,,Clear,50,2013-06-01 04:35:00
11:55 PM,68.4,45.0,43,29.87,10.0,ENE,8.1,-,N/A,,Clear,60,2013-06-01 04:55:00